SCP
0 0 0 0 0 0 0 0 0 0 0 0 0 0 0 0 0 0 0 0 0 0 0 0 0 0 0 0 0 0 0 0 0 0 0 0 0 0 0 0 0 0 0 0
0 0 0 0 0 0 0 0 0 0 0 0 0 0 0 0 0 0 0 0 0 0 0 0 0 0 0 0 0 0 0 0 0 0 0 0 0 -0 0 0 0 0 0 0
0 0 0 0 0 0 0 0 0 0 0 0 0 0 0 0 0 0 0 0 0 0 0 0 0 0 0 0 0 0 0 0 0 0 0 0 0 0 0 0 0 0 0 0
0 0 0 0 0 0 0 0 0 0 0 0 0 0 0 0 0 0 0 0 0 0 0 0 0 0 0 0 0 0 0 0 0 0 0 0 0 0 0 0 0 0 0 0
0 0 0 0 0 0 0 0 0 0 0 0 0 0 0 0 0 0 0 0 0 0 0 0 0 0 0 0 0 0 0 0 0 0 0 0 0 0 0 0 0 0 0 0
0 0 0 0 0 0 0 0 0 0 0 0 0 0 0 0 0 0 0 0 0 0 0 0 0 0 0 0 0 0 0 0 0 0 0 0 0 0 0 0 0 0 0 0
0 0 0 0 0 0 0 0 0 0 0 0 0 0 0 0 0 0 0 0 0 0 0 0 0 0 0 0 0 0 0 0 0 0 0 0 0 0 0 0 0 0 0 0
0 0 0 0 0 0 0 0 0 0 0 0 0 0 0 0 0 0 0 0 0 0 0 0 0 0 0 0 0 0 0 0 0 0 0 0 0 0 0 0 0 0 0 0
0 0 0 0 0 0 0 0 0 0 0 0 0 0 0 0 0 0 0 0 0 0 0 0 0 0 0 0 0 0 0 0 0 0 0 0 0 0 0 0 0 0 0 0
0 0 0 0 0 0 0 0 0 0 0 0 0 0 0 0 0 0 0 0 0 0 0 0 0 0 0 0 0 0 0 0 0 0 0 0 0 0 0 0 0 0 0 0
0 0 0 0 0 0 0 0 0 0 0 0 0 0 0 0 0 0 0 0 0 0 0 0 0 0 0 0 0 0 0 0 0 0 0 -0 0 0 0 0 0 0 0 0
0 0 0 0 0 0 0 0 0 0 0 0 0 0 0 0 0 0 0 -0 -0 -0 -0 -0 -0 0 0 0 0 0 0 0 0 0 0 -0 0 -0 0 0 0 0 0 0
0 0 0 0 0 0 0 0 0 0 0 0 0 0 0 0 0 0 0 0 -0 -0 -0 0 0 0 0 0 0 0 0 0 0 0 0 -0 0 0 0 0 0 0 0 0
0 0 0 0 0 0 0 0 0 0 0 0 0 0 0 0 0 0 0 0 -0 0 0 0 0 0 0 0 0 0 0 0 0 0 0 0 0 0 0 0 0 0 0 0
0 0 0 0 0 0 0 0 0 0 0 0 0 0 0 0 0 0 0 0 0 0 0 0 0 0 0 0 0 0 0 0 0 0 0 0 0 0 0 0 0 0 0 0
0 0 0 0 0 0 0 0 0 0 0 0 0 0 0 0 0 0 0 0 0 0 0 0 0 0 0 0 0 -0 -0 0 0 0 0 0 0 0 0 0 0 0 0 0
0 0 0 0 0 0 0 0 0 0 0 0 0 0 0 0 0 0 0 0 0 0 0 0 0 0 0 -0 -0 -0 -0 0 0 0 0 0 0 0 -0 0 0 0 0 0
0 0 0 0 0 0 0 0 0 0 0 0 0 0 0 0 0 0 0 0 0 0 0 0 0 0 -0 -0 -0 -0 0 0 0 0 0 0 0 0 -0 0 -0 0 0 0
0 0 0 0 0 0 0 0 0 0 0 0 0 0 0 0 0 0 0 0 0 0 0 0 0 -0 -0 -0 0 0 0 0 0 0 0 0 0 0 -0 -0 -0 0 0 0
0 0 0 0 0 0 0 0 0 0 0 0 0 0 0 0 0 0 0 0 0 0 0 0 0 -0 0 -0 0 0 0 0 0 0 0 0 0 0 -0 0 -0 0 0 0
0 0 0 0 0 0 0 0 0 0 0 0 0 0 0 0 0 0 0 0 0 0 0 0 0 -0 -0 -0 0 0 0 0 0 0 0 0 0 0 -0 -0 -0 -0 -0 0
0 0 0 0 0 0 0 0 0 0 0 0 0 0 0 0 0 0 0 0 0 0 0 0 -0 -0 -0 -0 0 0 0 0 0 0 0 0 0 0 0 -0 -0 -0 -0 -0
0 0 0 0 0 0 0 0 0 0 0 0 0 0 0 0 0 0 0 0 0 0 0 0 -0 -0 -0 0 0 0 0 0 0 0 0 0 0 0 0 -0 -0 -0 -0 -0
0 0 0 0 0 0 0 0 0 0 0 0 0 0 0 0 0 0 0 0 0 0 0 0 0 0 -0 0 0 0 0 0 0 0 0 0 0 0 0 -0 -0 -0 -0 -0
0 0 0 0 0 0 0 0 0 0 0 0 0 0 0 0 0 0 0 -0 -0 -0 -0 0 0 0 0 0 0 0 0 0 0 0 0 0 0 0 0 0 -0 -0 -0 -0
0 0 0 0 0 0 0 0 0 0 0 0 0 0 0 0 0 0 0 -0 -0 -0 -0 -0 -0 0 0 0 0 0 0 0 0 0 0 0 0 0 0 0 0 0 0 0
Wind_Speed_500mb
3 5 15 20 13 3 4 6 7 4 3 3 7 19 41 25 28 36 30 29 28 26 24 27 32 37 34 28 22 21 24 27 28 26 26 30 36 41 45 46 45 43 45 49
6 16 8 7 8 9 8 5 10 7 3 2 8 25 38 12 6 8 18 18 5 15 23 33 36 36 30 23 20 20 21 22 25 30 36 45 54 60 62 59 53 44 47 51
12 2 8 7 5 9 6 9 6 7 8 6 14 15 8 5 8 12 18 12 19 26 34 39 40 35 26 17 17 16 17 20 27 37 46 55 61 65 64 59 54 51 51 53
10 4 8 6 7 10 5 4 5 5 7 6 7 8 8 10 13 12 18 23 27 33 38 39 35 27 22 16 6 7 16 27 38 46 54 60 64 65 60 61 63 64 63 64
9 9 7 6 7 9 7 6 7 6 8 7 8 6 14 8 9 11 9 20 23 27 29 32 27 24 19 11 2 12 22 32 39 47 55 60 58 57 64 68 71 68 66 67
4 1 4 6 5 3 12 10 10 7 6 4 7 9 9 5 9 11 5 14 22 26 28 27 22 16 7 8 18 23 27 37 46 53 53 51 57 63 68 69 71 72 73 69
1 5 3 6 8 5 6 9 4 7 5 10 6 6 13 11 6 6 13 18 22 26 25 21 13 6 9 18 24 30 35 43 49 47 47 51 58 64 67 69 71 73 73 67
11 7 14 8 8 10 10 11 9 12 5 6 5 10 5 8 9 15 23 25 23 24 20 12 6 12 24 18 22 31 42 42 36 40 47 54 60 62 64 66 67 67 64 58
9 1 4 4 3 4 8 8 7 14 2 6 4 9 8 4 4 13 28 29 17 12 10 6 9 22 25 30 39 45 39 34 39 46 52 57 60 58 60 64 66 62 53 47
9 5 1 2 2 1 4 6 6 3 3 6 8 9 9 13 14 14 14 18 6 3 8 13 20 25 26 32 31 29 32 36 41 47 53 60 62 60 60 62 61 55 47 44
7 5 1 3 12 14 4 4 2 3 5 9 3 11 10 21 17 18 16 5 7 5 9 8 6 11 16 20 24 27 32 36 41 49 56 64 65 63 61 59 56 52 48 46
9 8 7 9 1 1 3 8 12 7 9 1 4 11 6 20 16 32 16 8 3 4 9 5 5 10 14 19 23 27 34 41 46 51 59 66 67 67 63 59 56 51 49 46
12 3 5 13 7 3 9 9 6 8 5 12 11 10 5 12 16 20 9 13 2 10 3 5 9 15 20 24 29 34 40 44 48 55 63 69 68 69 65 60 55 50 49 46
7 4 12 16 11 8 9 11 11 10 7 9 17 6 9 13 16 17 15 11 7 13 2 6 12 19 25 32 37 41 44 48 50 54 61 70 71 70 67 62 56 52 48 49
8 9 7 6 4 3 6 9 17 20 12 13 11 25 25 16 18 26 30 34 24 23 10 11 17 23 30 33 35 39 44 49 50 53 60 69 73 70 68 64 58 50 44 46
2 5 5 8 6 2 9 19 15 14 13 22 18 36 22 30 26 32 49 47 31 27 12 17 17 23 27 31 34 39 45 47 45 48 58 65 70 70 67 61 56 50 46 45
13 12 8 11 3 7 16 35 26 22 12 20 24 47 10 13 19 36 36 31 34 21 15 14 17 22 27 32 37 41 47 50 48 49 57 66 69 69 64 58 54 52 48 46
13 12 7 6 4 12 11 0 4 31 33 30 33 33 12 29 35 22 23 26 27 24 14 8 11 16 23 31 37 36 45 50 51 51 56 65 68 68 60 58 55 51 50 48
12 11 7 10 10 14 26 12 15 14 18 25 34 31 46 36 12 16 27 27 24 16 11 6 6 17 26 32 34 37 42 48 49 49 52 61 65 67 60 59 59 54 50 46
17 21 17 6 12 19 7 8 13 10 21 17 33 32 17 21 7 9 34 29 18 18 18 9 11 16 23 29 35 42 44 46 48 48 48 55 59 61 60 57 58 55 47 42
20 25 38 24 17 15 13 9 23 10 8 5 25 42 18 12 21 19 37 15 9 15 22 22 13 12 20 30 39 44 51 48 51 48 47 50 53 54 56 53 54 52 46 37
20 16 19 17 19 34 21 10 20 9 7 6 6 5 14 21 15 36 10 6 7 11 14 23 21 17 20 34 42 50 56 55 53 49 46 46 48 45 49 50 51 50 45 34
9 13 10 17 12 7 39 12 42 12 10 13 20 18 16 14 10 10 9 11 15 16 17 21 32 29 25 36 45 53 60 61 57 51 46 43 43 40 43 45 49 48 46 37
8 8 10 6 17 13 36 43 24 18 21 23 12 5 7 11 11 18 24 26 31 31 33 35 38 48 44 41 51 59 58 60 59 55 49 44 40 38 36 39 43 44 44 44
14 16 19 7 18 6 18 39 38 31 33 21 14 12 21 30 41 41 46 52 53 55 54 50 53 57 55 50 51 50 56 58 57 58 52 47 41 38 33 36 36 38 36 38
22 24 18 20 40 22 29 46 37 43 41 27 23 39 48 42 48 48 58 62 67 72 72 67 60 60 57 57 60 55 57 61 63 62 55 50 45 39 35 31 29 31 32 30
Wind_Direction_500mb
133 107 214 210 201 135 137 194 247 275 81 295 249 278 283 306 283 292 311 310 280 249 226 197 187 181 188 199 209 213 205 206 213 226 254 277 295 303 306 307 304 294 283 278
59 229 205 208 172 201 216 201 255 276 89 28 9 287 280 289 276 338 343 11 72 165 169 171 175 184 190 204 210 209 211 224 243 261 281 295 301 303 305 307 303 295 287 282
178 175 132 162 167 164 203 187 225 224 349 54 338 288 349 313 359 40 41 64 102 129 141 155 163 170 181 191 186 198 226 254 274 284 291 297 299 299 301 300 300 298 294 288
235 269 170 159 209 146 232 158 112 89 63 230 5 276 325 349 18 38 56 90 112 122 127 138 152 160 159 152 161 268 280 285 289 293 297 300 302 303 304 305 305 303 301 297
235 167 169 169 208 169 205 101 101 91 95 64 321 84 270 352 359 6 73 105 115 126 133 133 131 134 134 138 256 289 285 290 295 298 300 302 301 303 305 306 305 304 303 300
217 148 157 179 88 90 140 81 55 65 95 14 246 133 286 354 304 305 92 121 129 131 134 127 110 120 136 265 268 274 287 299 301 303 305 305 307 309 309 308 307 306 305 304
179 205 172 159 103 41 99 92 338 355 14 219 151 68 241 300 309 240 143 143 131 135 141 136 123 111 299 292 284 282 288 297 303 306 308 310 313 313 311 310 309 308 307 306
165 273 172 178 196 173 176 163 163 205 197 246 6 238 224 246 304 118 123 125 130 140 147 152 204 319 328 305 292 298 307 313 313 313 318 320 317 314 311 311 311 309 308 308
156 204 30 48 50 135 179 192 143 105 65 49 236 275 328 81 108 121 100 91 97 141 172 227 262 302 304 308 314 314 316 318 321 324 323 320 317 317 316 315 313 310 308 306
187 88 134 120 73 339 196 163 103 7 146 261 290 280 213 188 180 142 114 62 90 181 262 279 286 296 296 304 312 317 319 321 321 320 321 323 323 323 321 321 319 313 307 300
137 101 192 118 196 182 144 226 239 116 140 174 218 256 219 174 181 151 147 150 152 305 298 303 326 319 320 325 325 320 316 314 316 321 325 329 330 328 326 325 323 316 307 303
178 130 169 194 335 349 258 214 178 146 218 220 140 273 147 166 169 153 165 140 28 160 117 74 353 326 323 324 324 324 320 321 321 325 327 334 334 331 331 329 325 321 313 309
185 245 53 345 1 40 217 200 154 104 81 192 145 253 19 163 176 182 185 27 66 157 101 354 343 343 341 336 335 331 329 325 325 329 332 336 336 333 331 326 322 319 318 317
146 146 167 188 192 133 191 195 179 149 145 168 223 249 200 203 225 248 267 307 324 194 253 346 353 355 352 348 345 341 337 330 327 329 333 336 338 335 332 326 320 316 320 318
134 200 162 260 285 179 220 197 185 201 190 182 203 219 238 228 230 256 275 296 283 218 239 311 332 342 346 342 337 339 338 332 326 330 336 339 338 336 334 330 328 323 317 316
147 216 114 319 359 358 273 251 210 206 220 245 265 266 251 265 250 236 258 277 244 222 272 308 321 329 337 337 336 337 336 334 331 332 336 341 339 338 338 336 331 328 323 319
162 138 139 254 6 82 286 237 212 219 196 203 233 249 266 232 229 246 252 246 230 245 250 285 312 330 342 342 340 340 340 337 334 332 337 341 342 340 345 338 330 329 324 321
150 149 182 193 125 212 241 350 222 223 235 218 247 256 215 244 266 261 258 232 231 202 235 283 314 329 336 345 345 344 347 339 335 332 335 339 342 341 344 339 334 329 324 320
164 187 179 184 211 305 283 199 177 170 253 217 230 250 252 252 261 247 238 216 193 204 205 206 324 341 345 335 336 333 335 338 334 329 331 337 342 340 340 336 335 335 326 323
178 190 204 145 195 212 258 227 162 112 267 216 198 232 244 145 208 246 192 183 188 206 203 234 302 329 333 337 340 333 332 332 331 328 326 334 340 340 341 339 337 339 336 331
193 205 220 215 230 275 218 187 146 146 249 186 218 243 169 188 216 277 169 160 203 220 240 252 286 323 344 353 352 340 336 329 325 327 323 329 339 343 346 346 346 349 346 339
185 190 210 220 217 240 166 120 197 198 210 182 158 239 230 224 216 150 158 319 301 257 259 244 266 283 321 335 343 347 339 333 323 322 321 323 334 343 348 349 351 356 354 351
225 187 185 194 212 212 191 189 214 200 195 149 129 110 108 144 192 258 276 300 308 306 300 279 261 268 296 314 328 335 336 330 325 318 317 314 325 334 344 348 353 357 1 2
236 183 217 84 231 213 207 218 211 199 172 158 182 214 294 281 286 295 300 305 307 310 309 304 279 281 284 295 306 319 326 322 320 316 311 306 311 319 331 344 353 357 1 11
200 148 210 262 258 234 242 240 234 205 188 190 231 286 292 293 293 295 299 301 302 303 302 302 299 296 281 294 302 309 314 314 313 313 306 300 297 304 315 328 345 355 359 8
200 206 200 220 227 213 238 236 225 205 197 214 279 281 284 276 279 287 291 293 296 298 300 303 296 299 284 292 299 303 300 303 308 304 304 297 289 290 297 312 331 344 352 357
Wind_Speed_850mb
3 5 15 20 13 3 4 6 7 4 3 3 7 19 41 25 28 36 30 29 28 26 24 27 32 37 34 28 22 21 24 27 28 26 26 30 36 41 45 46 45 43 45 49
6 16 8 7 8 9 8 5 10 7 3 2 8 25 38 12 6 8 18 18 5 15 23 33 36 36 30 23 20 20 21 22 25 30 36 45 54 60 62 59 53 44 47 51
12 2 8 7 5 9 6 9 6 7 8 6 14 15 8 5 8 12 18 12 19 26 34 39 40 35 26 17 17 16 17 20 27 37 46 55 61 65 64 59 54 51 51 53
10 4 8 6 7 10 5 4 5 5 7 6 7 8 8 10 13 12 18 23 27 33 38 39 35 27 22 16 6 7 16 27 38 46 54 60 64 65 60 61 63 64 63 64
9 9 7 6 7 9 7 6 7 6 8 7 8 6 14 8 9 11 9 20 23 27 29 32 27 24 19 11 2 12 22 32 39 47 55 60 58 57 64 68 71 68 66 67
4 1 4 6 5 3 12 10 10 7 6 4 7 9 9 5 9 11 5 14 22 26 28 27 22 16 7 8 18 23 27 37 46 53 53 51 57 63 68 69 71 72 73 69
1 5 3 6 8 5 6 9 4 7 5 10 6 6 13 11 6 6 13 18 22 26 25 21 13 6 9 18 24 30 35 43 49 47 47 51 58 64 67 69 71 73 73 67
11 7 14 8 8 10 10 11 9 12 5 6 5 10 5 8 9 15 23 25 23 24 20 12 6 12 24 18 22 31 42 42 36 40 47 54 60 62 64 66 67 67 64 58
9 1 4 4 3 4 8 8 7 14 2 6 4 9 8 4 4 13 28 29 17 12 10 6 9 22 25 30 39 45 39 34 39 46 52 57 60 58 60 64 66 62 53 47
9 5 1 2 2 1 4 6 6 3 3 6 8 9 9 13 14 14 14 18 6 3 8 13 20 25 26 32 31 29 32 36 41 47 53 60 62 60 60 62 61 55 47 44
7 5 1 3 12 14 4 4 2 3 5 9 3 11 10 21 17 18 16 5 7 5 9 8 6 11 16 20 24 27 32 36 41 49 56 64 65 63 61 59 56 52 48 46
9 8 7 9 1 1 3 8 12 7 9 1 4 11 6 20 16 32 16 8 3 4 9 5 5 10 14 19 23 27 34 41 46 51 59 66 67 67 63 59 56 51 49 46
12 3 5 13 7 3 9 9 6 8 5 12 11 10 5 12 16 20 9 13 2 10 3 5 9 15 20 24 29 34 40 44 48 55 63 69 68 69 65 60 55 50 49 46
7 4 12 16 11 8 9 11 11 10 7 9 17 6 9 13 16 17 15 11 7 13 2 6 12 19 25 32 37 41 44 48 50 54 61 70 71 70 67 62 56 52 48 49
8 9 7 6 4 3 6 9 17 20 12 13 11 25 25 16 18 26 30 34 24 23 10 11 17 23 30 33 35 39 44 49 50 53 60 69 73 70 68 64 58 50 44 46
2 5 5 8 6 2 9 19 15 14 13 22 18 36 22 30 26 32 49 47 31 27 12 17 17 23 27 31 34 39 45 47 45 48 58 65 70 70 67 61 56 50 46 45
13 12 8 11 3 7 16 35 26 22 12 20 24 47 10 13 19 36 36 31 34 21 15 14 17 22 27 32 37 41 47 50 48 49 57 66 69 69 64 58 54 52 48 46
13 12 7 6 4 12 11 0 4 31 33 30 33 33 12 29 35 22 23 26 27 24 14 8 11 16 23 31 37 36 45 50 51 51 56 65 68 68 60 58 55 51 50 48
12 11 7 10 10 14 26 12 15 14 18 25 34 31 46 36 12 16 27 27 24 16 11 6 6 17 26 32 34 37 42 48 49 49 52 61 65 67 60 59 59 54 50 46
17 21 17 6 12 19 7 8 13 10 21 17 33 32 17 21 7 9 34 29 18 18 18 9 11 16 23 29 35 42 44 46 48 48 48 55 59 61 60 57 58 55 47 42
20 25 38 24 17 15 13 9 23 10 8 5 25 42 18 12 21 19 37 15 9 15 22 22 13 12 20 30 39 44 51 48 51 48 47 50 53 54 56 53 54 52 46 37
20 16 19 17 19 34 21 10 20 9 7 6 6 5 14 21 15 36 10 6 7 11 14 23 21 17 20 34 42 50 56 55 53 49 46 46 48 45 49 50 51 50 45 34
9 13 10 17 12 7 39 12 42 12 10 13 20 18 16 14 10 10 9 11 15 16 17 21 32 29 25 36 45 53 60 61 57 51 46 43 43 40 43 45 49 48 46 37
8 8 10 6 17 13 36 43 24 18 21 23 12 5 7 11 11 18 24 26 31 31 33 35 38 48 44 41 51 59 58 60 59 55 49 44 40 38 36 39 43 44 44 44
14 16 19 7 18 6 18 39 38 31 33 21 14 12 21 30 41 41 46 52 53 55 54 50 53 57 55 50 51 50 56 58 57 58 52 47 41 38 33 36 36 38 36 38
22 24 18 20 40 22 29 46 37 43 41 27 23 39 48 42 48 48 58 62 67 72 72 67 60 60 57 57 60 55 57 61 63 62 55 50 45 39 35 31 29 31 32 30
Wind_Direction_850mb
133 107 214 210 201 135 137 194 247 275 81 295 249 278 283 306 283 292 311 310 280 249 226 197 187 181 188 199 209 213 205 206 213 226 254 277 295 303 306 307 304 294 283 278
59 229 205 208 172 201 216 201 255 276 89 28 9 287 280 289 276 338 343 11 72 165 169 171 175 184 190 204 210 209 211 224 243 261 281 295 301 303 305 307 303 295 287 282
178 175 132 162 167 164 203 187 225 224 349 54 338 288 349 313 359 40 41 64 102 129 141 155 163 170 181 191 186 198 226 254 274 284 291 297 299 299 301 300 300 298 294 288
235 269 170 159 209 146 232 158 112 89 63 230 5 276 325 349 18 38 56 90 112 122 127 138 152 160 159 152 161 268 280 285 289 293 297 300 302 303 304 305 305 303 301 297
235 167 169 169 208 169 205 101 101 91 95 64 321 84 270 352 359 6 73 105 115 126 133 133 131 134 134 138 256 289 285 290 295 298 300 302 301 303 305 306 305 304 303 300
217 148 157 179 88 90 140 81 55 65 95 14 246 133 286 354 304 305 92 121 129 131 134 127 110 120 136 265 268 274 287 299 301 303 305 305 307 309 309 308 307 306 305 304
179 205 172 159 103 41 99 92 338 355 14 219 151 68 241 300 309 240 143 143 131 135 141 136 123 111 299 292 284 282 288 297 303 306 308 310 313 313 311 310 309 308 307 306
165 273 172 178 196 173 176 163 163 205 197 246 6 238 224 246 304 118 123 125 130 140 147 152 204 319 328 305 292 298 307 313 313 313 318 320 317 314 311 311 311 309 308 308
156 204 30 48 50 135 179 192 143 105 65 49 236 275 328 81 108 121 100 91 97 141 172 227 262 302 304 308 314 314 316 318 321 324 323 320 317 317 316 315 313 310 308 306
187 88 134 120 73 339 196 163 103 7 146 261 290 280 213 188 180 142 114 62 90 181 262 279 286 296 296 304 312 317 319 321 321 320 321 323 323 323 321 321 319 313 307 300
137 101 192 118 196 182 144 226 239 116 140 174 218 256 219 174 181 151 147 150 152 305 298 303 326 319 320 325 325 320 316 314 316 321 325 329 330 328 326 325 323 316 307 303
178 130 169 194 335 349 258 214 178 146 218 220 140 273 147 166 169 153 165 140 28 160 117 74 353 326 323 324 324 324 320 321 321 325 327 334 334 331 331 329 325 321 313 309
185 245 53 345 1 40 217 200 154 104 81 192 145 253 19 163 176 182 185 27 66 157 101 354 343 343 341 336 335 331 329 325 325 329 332 336 336 333 331 326 322 319 318 317
146 146 167 188 192 133 191 195 179 149 145 168 223 249 200 203 225 248 267 307 324 194 253 346 353 355 352 348 345 341 337 330 327 329 333 336 338 335 332 326 320 316 320 318
134 200 162 260 285 179 220 197 185 201 190 182 203 219 238 228 230 256 275 296 283 218 239 311 332 342 346 342 337 339 338 332 326 330 336 339 338 336 334 330 328 323 317 316
147 216 114 319 359 358 273 251 210 206 220 245 265 266 251 265 250 236 258 277 244 222 272 308 321 329 337 337 336 337 336 334 331 332 336 341 339 338 338 336 331 328 323 319
162 138 139 254 6 82 286 237 212 219 196 203 233 249 266 232 229 246 252 246 230 245 250 285 312 330 342 342 340 340 340 337 334 332 337 341 342 340 345 338 330 329 324 321
150 149 182 193 125 212 241 350 222 223 235 218 247 256 215 244 266 261 258 232 231 202 235 283 314 329 336 345 345 344 347 339 335 332 335 339 342 341 344 339 334 329 324 320
164 187 179 184 211 305 283 199 177 170 253 217 230 250 252 252 261 247 238 216 193 204 205 206 324 341 345 335 336 333 335 338 334 329 331 337 342 340 340 336 335 335 326 323
178 190 204 145 195 212 258 227 162 112 267 216 198 232 244 145 208 246 192 183 188 206 203 234 302 329 333 337 340 333 332 332 331 328 326 334 340 340 341 339 337 339 336 331
193 205 220 215 230 275 218 187 146 146 249 186 218 243 169 188 216 277 169 160 203 220 240 252 286 323 344 353 352 340 336 329 325 327 323 329 339 343 346 346 346 349 346 339
185 190 210 220 217 240 166 120 197 198 210 182 158 239 230 224 216 150 158 319 301 257 259 244 266 283 321 335 343 347 339 333 323 322 321 323 334 343 348 349 351 356 354 351
225 187 185 194 212 212 191 189 214 200 195 149 129 110 108 144 192 258 276 300 308 306 300 279 261 268 296 314 328 335 336 330 325 318 317 314 325 334 344 348 353 357 1 2
236 183 217 84 231 213 207 218 211 199 172 158 182 214 294 281 286 295 300 305 307 310 309 304 279 281 284 295 306 319 326 322 320 316 311 306 311 319 331 344 353 357 1 11
200 148 210 262 258 234 242 240 234 205 188 190 231 286 292 293 293 295 299 301 302 303 302 302 299 296 281 294 302 309 314 314 313 313 306 300 297 304 315 328 345 355 359 8
200 206 200 220 227 213 238 236 225 205 197 214 279 281 284 276 279 287 291 293 296 298 300 303 296 299 284 292 299 303 300 303 308 304 304 297 289 290 297 312 331 344 352 357